Flag for U.S.A. Weather past 2 weeks in Knoxville, Tennessee, U.S.A.

Now
68 °F

Mostly cloudy.


Feels Like: 68 °F
Forecast: 64 / 81 °F
Wind: 5 mph from Northwest

Location: McGhee Tyson Airport

Current Time: Aug 1, 2014 at 4:59:40 AM

Latest Report: Aug 1, 2014 at 2:53 AM


Visibility: 10 mi

Pressure: 30.04 "Hg

Humidity: 90%

Dew point: 65 °F

Location of KnoxvilleLocation

Historic Weather in Knoxville — Graph

°F

Knoxville temperature yesterday

Maximum temperature yesterday: 81 °F (at 3:53 PM)
Minimum temperature yesterday: 59 °F (at 4:53 AM)
Average temperature yesterday: 70 °F

Past Weeks' High & Low Weather Summary

 TemperatureHumidityPressure
High90 °F (Jul 27, 4:53 PM)100% (Jul 18, 11:59 PM)30.16 "Hg (Jul 18, 11:59 PM)
Low55 °F (Jul 30, 5:53 AM)41% (Jul 17, 4:53 PM)29.79 "Hg (Jul 27, 5:53 PM)
Average73 °F77%30.01 "Hg
* Reported Jul 17 2:53 AM — Aug 1 2:53 AM, Knoxville, Weather by CustomWeather, © 2014

Note: Actual official high and low records may vary slightly from our data, if they occured in-between our weather recording intervals... More about our weather records

Advertising

Knoxville weather history for previous 24 hours

 ConditionsComfort  
Time TempWeatherWind HumidityBarometerVisibility
2:53 AM
Aug 1
68 °FMostly cloudy.5 mph90%30.04 "Hg10 mi
1:53 AM69 °FPartly cloudy.No wind87%30.04 "Hg10 mi
12:53 AM70 °FPartly cloudy.3 mph84%30.06 "Hg10 mi
11:53 PM
Jul 31
71 °FMostly cloudy.6 mph84%30.05 "Hg10 mi
10:53 PM72 °FMostly cloudy.No wind76%30.06 "Hg10 mi
9:53 PM73 °FPartly cloudy.3 mph74%30.05 "Hg10 mi
8:53 PM74 °FMore clouds than sun.6 mph71%30.04 "Hg10 mi
7:53 PM77 °FMore clouds than sun.6 mph62%30.05 "Hg10 mi
6:53 PM79 °FMore clouds than sun.6 mph56%30.05 "Hg10 mi
5:53 PM80 °FMore clouds than sun.No wind49%30.05 "Hg10 mi
4:53 PM81 °FMore clouds than sun.3 mph47%30.05 "Hg10 mi
3:53 PM81 °FMore clouds than sun.7 mph51%30.06 "Hg10 mi
2:53 PM78 °FBroken clouds.5 mph58%30.07 "Hg10 mi
1:53 PM78 °FBroken clouds.5 mph58%30.09 "Hg10 mi
12:53 PM74 °FMostly cloudy.5 mph64%30.09 "Hg10 mi
11:53 AM71 °FMostly cloudy.6 mph68%30.10 "Hg10 mi
10:53 AM68 °FMostly cloudy.7 mph76%30.10 "Hg10 mi
9:53 AM67 °FMostly cloudy.6 mph81%30.09 "Hg10 mi
8:53 AM64 °FMostly cloudy.7 mph87%30.08 "Hg9 mi
7:53 AM62 °FMore clouds than sun.6 mph90%30.07 "Hg10 mi
6:53 AM60 °FMostly cloudy.5 mph93%30.07 "Hg9 mi
5:53 AM60 °FHigh level clouds.3 mph93%30.06 "Hg9 mi
4:53 AM59 °FHigh level clouds.3 mph96%30.06 "Hg8 mi
Weather by CustomWeather, © 2014

See weather overviewHow to use our weather pages